Lapse_Rate
6.9 7.2 7.3 7.3 7.8 7.1 5.8 7.4 8.2 8.2 8.1 8.4 8.6 8.5 8.2 8.0 7.6 7.6 7.5 7.7 7.6 7.5
6.9 7.3 6.9 7.4 7.5 7.0 6.5 6.3 7.6 8.1 8.1 8.4 8.6 8.5 8.4 8.2 8.0 7.6 7.7 7.5 7.7 7.5
7.6 7.6 7.3 7.8 7.8 7.5 7.1 7.5 7.7 7.7 8.2 8.4 8.3 8.3 8.2 8.4 8.3 7.7 7.5 7.7 7.4 7.4
7.7 7.5 7.2 7.6 7.5 7.0 6.2 6.8 6.1 7.3 7.6 8.5 8.3 8.3 8.1 8.1 8.3 7.8 7.6 7.5 7.3 7.3
7.9 8.1 7.6 7.5 7.5 6.9 7.0 7.4 7.8 7.9 8.4 8.5 8.6 8.3 8.1 8.0 7.9 7.7 7.2 7.2 7.1 7.1
8.2 7.8 7.7 7.7 7.5 7.2 7.9 7.8 7.7 8.3 8.5 8.4 8.6 8.5 8.4 8.3 8.1 7.7 7.4 7.5 7.3 6.9
7.9 8.0 7.9 7.9 7.9 7.9 7.7 7.8 7.6 7.9 8.4 8.3 8.5 8.1 8.4 8.5 8.2 8.1 7.8 7.1 7.1 6.8
7.5 7.8 7.9 7.8 7.7 7.8 7.8 7.4 7.6 7.4 7.7 7.7 7.7 8.4 8.4 8.2 7.7 7.3 7.1 6.9 6.6 6.7
6.9 7.0 7.1 7.3 7.3 7.3 7.2 7.2 7.1 7.4 7.3 7.1 7.3 7.3 7.3 7.0 7.2 6.8 6.6 6.8 6.8 6.3
6.2 6.4 6.5 6.7 6.4 6.4 6.8 6.9 6.7 6.3 6.5 6.6 6.6 6.3 6.4 6.9 6.6 6.4 6.5 6.4 6.3 6.1
6.2 5.9 5.8 6.4 6.9 5.9 6.3 6.4 6.4 6.1 5.7 6.0 6.2 5.8 6.0 6.1 6.0 5.9 5.7 5.8 5.8 5.5
5.0 5.7 6.0 6.2 6.0 5.7 6.0 5.7 5.7 5.5 5.1 5.5 5.1 5.6 5.5 5.8 5.8 5.5 5.6 5.4 5.3 5.1
5.8 5.6 5.7 5.8 5.8 5.8 5.5 5.2 5.9 5.8 5.5 5.5 5.2 5.2 5.5 5.6 5.9 5.4 5.3 5.4 5.5 5.4
6.0 6.1 6.0 5.8 5.8 5.6 5.9 5.7 5.7 5.5 5.4 5.4 5.3 5.3 5.7 5.7 5.4 5.8 5.5 5.8 5.8 5.9
Wind_Speed
20 15 16 16 15 11 10 3 12 17 19 19 18 16 15 12 13 15 12 16 12 10
17 21 16 18 19 17 19 21 16 16 19 19 17 17 16 12 15 14 14 13 13 11
16 20 18 20 13 15 17 21 17 16 19 18 16 16 16 13 14 15 12 11 13 13
15 14 13 10 15 23 22 21 20 21 16 15 16 15 15 14 14 16 16 13 13 14
16 16 14 12 10 9 15 16 16 16 17 14 14 14 15 16 16 17 16 13 12 14
18 18 17 16 14 13 7 6 10 15 14 15 15 16 16 16 15 16 16 14 14 13
19 17 15 16 15 14 12 4 5 6 9 10 11 12 13 13 13 13 13 11 13 12
19 17 17 17 16 15 12 9 10 6 5 5 8 7 10 10 11 13 10 8 9 10
19 18 17 15 16 14 15 12 11 13 3 5 7 16 5 8 8 10 12 9 10 7
16 18 16 15 15 15 13 12 12 13 12 12 12 18 13 5 10 10 9 9 7 7
18 16 14 13 18 14 12 12 10 10 10 9 12 19 17 9 3 7 7 7 6 7
14 13 13 18 11 11 10 10 10 10 11 10 11 24 19 9 2 5 7 10 9 5
13 14 14 12 11 8 8 10 8 8 11 15 11 23 27 15 5 7 8 8 7 13
14 14 14 12 12 12 10 9 9 7 8 11 14 15 25 24 6 4 6 6 5 6
Wind_Direction
231 230 236 194 197 199 199 200 198 193 206 208 197 192 193 188 198 201 210 203 202 211
228 236 221 213 208 199 196 218 204 192 201 208 200 194 191 192 196 202 203 209 207 213
207 235 213 215 214 233 192 185 187 196 200 199 196 195 194 193 198 199 204 203 211 216
7 340 235 231 188 212 210 192 181 186 193 188 190 192 193 193 196 204 206 203 209 217
8 12 11 8 339 318 199 174 156 174 185 179 184 191 192 191 197 195 202 196 203 219
12 8 5 1 3 15 311 222 194 193 186 176 189 194 195 197 196 196 193 190 194 205
5 6 0 359 6 5 13 15 151 173 169 172 184 188 191 189 185 193 202 197 199 183
3 359 4 9 6 3 7 7 357 165 130 165 190 179 178 190 189 193 187 183 203 198
5 3 1 9 12 1 4 19 18 5 328 170 53 355 247 179 189 192 185 173 180 186
5 2 356 3 27 7 10 13 28 25 35 45 27 5 359 325 200 201 194 181 159 134
10 351 348 1 31 7 16 28 24 31 30 34 24 6 4 335 262 198 166 155 138 140
355 347 357 21 360 358 21 27 38 33 30 26 22 13 11 350 270 140 105 79 39 74
3 1 7 10 3 7 17 32 27 23 27 30 15 15 17 8 316 107 96 74 66 50
17 16 13 3 10 18 20 29 24 32 34 30 29 23 23 18 24 67 88 93 73 60